Tracking 35334 objects as of 12-Sep-2026
HD Live streaming from Space Station
objects crossing your sky now

PEGASUS DEB


PEGASUS DEB is no longer on orbit


NORAD ID: 24521
Int'l Code: 1994-029VV
Launch date: May 19, 1994
Source: United States (US)
Launch site: AIR FORCE WESTERN TEST RANGE (AFWTR)
Decay date: 2002-07-09

Note: This is SATELLITE DEBRIS
Your satellite tracking list
Your tracking list is empty




NASA's NSSDC Master Catalog

Two Line Element Set (TLE):
1 24521U 94029VV  02190.37288915 +.06177812 -11281-5 +39681-2 0  9993
2 24521 082.0306 174.6902 0016193 201.3376 158.8138 16.17163122433213
Source of the keplerian elements: AFSPC